EW0608 Weather Reports


Display with metric or nautical units.
time (UTC)temp
F
wind
direction
speed
MPH
gust
MPH
rain 1hr
in
rain 24hr
in
rain mn
in
humidity
%
barometer
mb
20260509104516 50 72 0.0 0.0 0.00 0.47 0.00 84 1010.1
20260509103018 50 72 0.0 0.0 0.00 0.47 0.00 84 1009.7
20260509101515 50 72 0.0 2.0 0.00 0.47 0.00 84 1009.6
20260509100020 50 72 0.0 0.0 0.00 0.47 0.00 85 1009.6
20260509094514 50 72 0.0 0.0 0.00 0.47 0.00 85 1009.7
20260509093014 50 72 0.0 2.0 0.00 0.47 0.00 86 1009.7
20260509091513 50 132 0.0 1.0 0.00 0.47 0.00 85 1009.6
20260509090013 50 132 0.0 0.0 0.00 0.47 0.00 85 1009.4
20260509084525 50 132 0.0 0.0 0.00 0.47 0.00 86 1009.4
20260509083020 50 132 0.0 0.0 0.00 0.47 0.00 86 1009.6
20260509081513 50 132 0.0 1.0 0.00 0.47 0.00 85 1009.5
20260509080008 50 132 0.0 0.0 0.00 0.47 0.00 85 1009.6
20260509074510 50 132 0.0 0.0 0.00 0.47 0.00 85 1009.7
20260509073006 50 132 0.0 0.0 0.00 0.47 0.00 84 1009.8
20260509071504 51 132 0.0 0.0 0.00 0.47 0.00 84 1009.8
20260509070004 51 132 0.0 0.0 0.00 0.47 0.00 83 1009.8
20260509064503 51 132 0.0 0.0 0.00 0.47 0.00 83 1009.9
20260509063001 51 132 0.0 0.0 0.00 0.47 0.00 81 1009.9
20260509061615 51 132 0.0 0.0 0.00 0.47 0.00 82 1010.2
20260509060131 51 132 0.0 0.0 0.00 0.47 0.00 82 1010.3
20260509054601 52 132 0.0 0.0 0.00 0.47 0.00 81 1010.4
20260509054355 52 132 0.0 0.0 0.00 0.00 0.00 81 1010.3
20260509053846 52 132 0.0 0.0 0.00 0.47 0.00 80 1010.5
20260509053339 52 132 0.0 1.0 0.00 0.47 0.00 80 1010.5
20260509053052 52 132 0.0 2.0 0.00 0.47 0.00 80 1010.5
20260509052851 52 132 0.0 2.0 0.00 0.47 0.00 79 1010.6
20260509052344 53 132 1.0 2.0 0.00 0.47 0.00 80 1010.7
20260509051855 52 132 0.0 0.0 0.00 0.47 0.00 80 1010.5
20260509051508 52 132 0.0 0.0 0.00 0.47 0.00 80 1010.5
20260509051407 52 132 0.0 0.0 0.00 0.47 0.00 80 1010.6
20260509050838 53 132 0.0 0.0 0.00 0.47 0.00 79 1010.6
20260509050352 53 132 0.0 0.0 0.00 0.47 0.00 80 1010.6
20260509050058 52 132 0.0 0.0 0.00 0.47 0.00 80 1010.5
20260509045840 53 132 0.0 0.0 0.00 0.47 0.00 80 1010.6
20260509045353 53 132 0.0 0.0 0.00 0.47 0.00 79 1010.6
20260509044844 53 132 0.0 0.0 0.00 0.47 0.00 78 1010.5
20260509044552 52 132 0.0 0.0 0.00 0.47 0.00 78 1010.4
20260509044337 53 132 0.0 0.0 0.00 0.47 0.00 78 1010.5
20260509043850 53 132 0.0 0.0 0.00 0.47 0.00 78 1010.5
20260509043347 53 132 0.0 0.0 0.00 0.47 0.00 78 1010.6
20260509043040 53 132 0.0 0.0 0.00 0.47 0.00 78 1010.5
20260509042839 53 132 0.0 0.0 0.00 0.47 0.00 78 1010.6
20260509042412 53 132 0.0 1.0 0.00 0.47 0.00 78 1010.6
20260509041543 53 132 0.0 1.0 0.00 0.47 0.00 77 1010.5
20260509041342 53 132 0.0 1.0 0.00 0.47 0.00 77 1010.6
20260509040838 53 132 0.0 0.0 0.00 0.47 0.00 78 1010.7
20260509040352 53 132 0.0 0.0 0.00 0.47 0.00 77 1010.6
20260509040043 53 132 0.0 1.0 0.00 0.47 0.00 77 1010.5
20260509035842 54 132 0.0 1.0 0.00 0.47 0.47 76 1010.7
20260509035415 54 132 0.0 3.0 0.00 0.47 0.47 76 1010.6
20260509034845 54 132 2.0 3.0 0.00 0.47 0.47 76 1010.6
20260509034542 53 132 1.0 3.0 0.00 0.47 0.47 77 1010.4
20260509034339 54 132 1.0 3.0 0.00 0.47 0.47 76 1010.5
20260509033851 54 131 1.0 2.0 0.00 0.47 0.47 75 1010.5
20260509033343 54 77 0.0 1.0 0.00 0.47 0.47 75 1010.4
20260509033056 54 77 0.0 1.0 0.00 0.47 0.47 74 1010.2
20260509032855 54 77 0.0 1.0 0.00 0.47 0.47 73 1010.2
20260509032406 54 77 0.0 1.0 0.00 0.47 0.47 73 1010.4
20260509031837 55 77 1.0 2.0 0.00 0.47 0.47 74 1010.5
20260509031550 54 77 0.0 2.0 0.00 0.47 0.47 73 1010.5
20260509031349 55 77 0.0 2.0 0.00 0.47 0.47 73 1010.5
20260509030921 55 77 1.0 3.0 0.00 0.47 0.47 73 1010.5
20260509030348 55 77 1.0 3.0 0.00 0.47 0.47 74 1010.6
20260509030043 55 77 1.0 3.0 0.00 0.47 0.47 73 1010.5
20260509025838 56 77 2.0 4.0 0.00 0.47 0.47 71 1010.5
20260509025349 55 344 2.0 4.0 0.00 0.47 0.47 71 1010.8
20260509024900 56 51 2.0 3.0 0.00 0.47 0.47 73 1010.7
20260509024552 55 97 0.0 3.0 0.00 0.47 0.47 73 1010.7
20260509024351 56 223 0.0 2.0 0.00 0.47 0.47 72 1011.0
20260509023843 56 228 1.0 2.0 0.00 0.47 0.47 71 1011.1
20260509023355 56 179 0.0 0.0 0.00 0.47 0.47 71 1011.0
20260509023012 55 179 0.0 0.0 0.00 0.47 0.47 70 1011.0
20260509022907 56 179 0.0 2.0 0.00 0.47 0.47 70 1011.1
20260509022358 56 179 0.0 2.0 0.00 0.47 0.47 68 1011.1
20260509021849 55 63 0.0 4.0 0.00 0.47 0.47 66 1011.0
20260509021542 55 63 0.0 4.0 0.00 0.47 0.47 67 1010.8
20260509021341 56 308 2.0 4.0 0.00 0.47 0.47 66 1010.7
20260509020913 56 59 0.0 1.0 0.00 0.47 0.47 67 1010.7
20260509020345 56 59 0.0 1.0 0.00 0.47 0.47 67 1010.8
20260509020058 55 59 0.0 1.0 0.00 0.47 0.47 67 1010.9
20260509015853 56 59 0.0 1.0 0.00 0.47 0.47 66 1010.9
20260509015345 56 59 0.0 1.0 0.00 0.47 0.47 65 1010.9
20260509014838 56 59 0.0 1.0 0.00 0.47 0.47 64 1010.8
20260509014551 56 59 0.0 1.0 0.00 0.47 0.47 64 1010.7
20260509014350 56 59 0.0 1.0 0.00 0.47 0.47 64 1010.8
20260509013839 56 59 0.0 0.0 0.00 0.47 0.47 64 1010.8
20260509013350 56 59 0.0 0.0 0.00 0.47 0.47 64 1010.8
20260509013001 55 59 0.0 0.0 0.00 0.47 0.47 65 1010.7
20260509012901 56 59 0.0 0.0 0.00 0.47 0.47 65 1010.7
20260509012351 56 59 0.0 1.0 0.00 0.47 0.47 65 1010.7
20260509011842 56 59 1.0 2.0 0.00 0.47 0.47 65 1010.6
20260509011518 55 59 0.0 2.0 0.00 0.47 0.47 64 1010.6
20260509011416 56 59 1.0 2.0 0.00 0.47 0.47 65 1010.6
20260509010846 56 59 0.0 0.0 0.00 0.47 0.47 64 1010.5
20260509010357 56 59 327.0 327.0 0.00 0.00 0.47 63 1010.3
20260509010007 56 59 0.0 2.0 0.00 0.47 0.47 62 1010.5
20260509005906 56 59 0.0 2.0 0.00 0.47 0.47 63 1010.4
20260509005337 57 66 0.0 2.0 0.00 0.47 0.47 60 1010.3
20260509004850 57 66 0.0 0.0 0.00 0.47 0.47 59 1010.4
20260509004543 57 66 0.0 0.0 0.00 0.47 0.47 58 1010.4
20260509004342 57 66 0.0 0.0 0.00 0.47 0.47 58 1010.4
20260509003909 57 66 0.0 0.0 0.00 0.47 0.47 59 1010.4
20260509003340 58 66 0.0 0.0 0.00 0.47 0.47 58 1010.4
20260509003100 57 66 0.0 0.0 0.00 0.47 0.47 58 1010.4
20260509002851 58 66 0.0 0.0 0.00 0.47 0.47 58 1010.5
20260509002423 58 66 0.0 0.0 0.00 0.47 0.47 58 1010.4
20260509001851 59 66 0.0 0.0 0.00 0.47 0.47 55 1010.3
20260509001523 59 66 0.0 0.0 0.00 0.47 0.47 55 1010.3
20260509001422 59 66 0.0 0.0 0.00 0.00 0.47 54 1010.1
20260509000849 60 66 0.0 0.0 0.00 0.47 0.47 54 1010.3
20260509000342 60 66 0.0 0.0 0.00 0.47 0.47 52 1010.2
20260509000016 60 66 0.0 0.0 0.00 0.47 0.47 52 1010.1
20260508235911 61 66 0.0 0.0 0.00 0.47 0.47 52 1010.2
20260508235341 62 66 0.0 0.0 0.00 0.47 0.47 50 1010.2
20260508234912 62 66 0.0 0.0 0.00 0.47 0.47 51 1010.2
20260508234542 62 66 0.0 0.0 0.00 0.47 0.47 50 1010.1
20260508234342 63 66 0.0 0.0 0.00 0.47 0.47 52 1010.1
20260508233915 64 66 0.0 0.0 0.00 0.47 0.47 48 1010.1
20260508233345 64 66 0.0 1.0 0.00 0.47 0.47 47 1010.1
20260508233019 64 66 0.0 1.0 0.00 0.47 0.47 46 1009.9
20260508232857 65 66 0.0 0.0 0.00 0.47 0.47 45 1010.0
20260508232349 65 66 0.0 1.0 0.00 0.47 0.47 43 1010.0
20260508231859 65 66 0.0 1.0 0.00 0.47 0.47 45 1009.9
20260508231557 65 66 0.0 1.0 0.00 0.47 0.47 44 1009.8
20260508231351 66 66 0.0 3.0 0.00 0.47 0.47 43 1010.0
20260508230903 67 66 0.0 3.0 0.00 0.47 0.47 38 1010.0
20260508230415 67 24 2.0 3.0 0.00 0.47 0.47 38 1010.0
20260508230044 67 317 2.0 3.0 0.00 0.47 0.47 38 1009.9
20260508225842 68 324 2.0 3.0 0.00 0.47 0.47 41 1010.0
20260508225354 68 49 1.0 5.0 0.00 0.47 0.47 36 1010.0
20260508224905 69 276 2.0 5.0 0.00 0.47 0.47 42 1010.0
20260508224537 69 316 0.0 4.0 0.00 0.47 0.47 35 1009.8
20260508224337 69 48 2.0 4.0 0.00 0.47 0.47 36 1010.0
20260508223849 68 355 1.0 3.0 0.00 0.47 0.47 37 1009.9
20260508223344 68 230 1.0 3.0 0.00 0.47 0.47 37 1010.0
20260508223141 67 74 0.0 3.0 0.00 0.47 0.47 36 1010.0
20260508222837 68 355 0.0 7.0 0.00 0.47 0.47 40 1010.0
20260508222350 68 209 1.0 7.0 0.00 0.47 0.47 37 1010.1
20260508221841 68 333 2.0 7.0 0.00 0.47 0.47 36 1010.1
20260508221557 68 101 0.0 2.0 0.00 0.47 0.47 36 1010.0
20260508221354 68 101 1.0 5.0 0.00 0.47 0.47 38 1010.2
20260508220846 68 224 1.0 5.0 0.00 0.47 0.47 37 1010.2
20260508220339 68 327 2.0 3.0 0.00 0.47 0.47 40 1010.2
20260508220049 68 134 0.0 3.0 0.00 0.47 0.47 36 1010.1
20260508215848 69 57 1.0 2.0 0.00 0.47 0.47 36 1010.1
20260508215340 69 59 1.0 3.0 0.00 0.47 0.47 36 1010.2
20260508214852 68 332 1.0 4.0 0.00 0.47 0.47 37 1010.2
20260508214544 68 338 1.0 4.0 0.00 0.47 0.47 37 1010.2
20260508214343 68 253 2.0 4.0 0.00 0.47 0.47 36 1010.2
20260508213835 68 111 1.0 4.0 0.00 0.47 0.47 37 1010.2
20260508213347 68 40 1.0 5.0 0.00 0.47 0.47 36 1010.3
20260508213040 68 333 2.0 5.0 0.00 0.47 0.47 37 1010.3
20260508212839 68 290 3.0 5.0 0.00 0.47 0.47 36 1010.3
20260508212352 69 348 1.0 5.0 0.00 0.47 0.47 35 1010.4
20260508211904 69 92 1.0 5.0 0.00 0.47 0.47 35 1010.4
20260508211518 68 223 2.0 5.0 0.00 0.47 0.47 35 1010.5
20260508211415 69 291 2.0 5.0 0.00 0.47 0.47 35 1010.4
20260508210846 69 360 2.0 6.0 0.00 0.47 0.47 35 1010.4
20260508210340 69 38 2.0 6.0 0.00 0.47 0.47 35 1010.3
20260508210050 69 213 2.0 6.0 0.00 0.47 0.47 34 1010.4
20260508205849 69 78 0.0 4.0 0.00 0.49 0.47 36 1010.4
20260508205342 69 43 1.0 5.0 0.00 0.49 0.47 37 1010.5
20260508204855 70 331 327.0 327.0 0.00 0.00 0.47 34 1010.5
20260508204548 68 26 1.0 5.0 0.00 0.49 0.47 36 1010.6
20260508204347 69 71 1.0 5.0 0.00 0.49 0.47 34 1010.6
20260508203840 70 355 1.0 6.0 0.00 0.49 0.47 35 1010.7
20260508203337 68 47 0.0 4.0 0.00 0.49 0.47 36 1010.7
20260508203052 67 47 0.0 4.0 0.00 0.49 0.47 35 1010.7
20260508202850 68 126 0.0 4.0 0.00 0.49 0.47 36 1010.8
20260508202343 68 59 1.0 4.0 0.01 0.49 0.47 37 1010.9
20260508201855 68 53 1.0 5.0 0.01 0.49 0.47 36 1010.9
20260508201517 67 163 2.0 5.0 0.01 0.49 0.47 35 1010.9
20260508201408 68 187 2.0 4.0 0.01 0.49 0.47 35 1011.0
20260508200839 68 87 1.0 4.0 0.02 0.49 0.47 35 1011.0
20260508200352 68 40 1.0 5.0 0.02 0.49 0.47 34 1011.2
20260508200040 67 9 1.0 8.0 0.02 0.49 0.47 35 1011.1
20260508195839 68 247 2.0 8.0 0.02 0.49 0.47 34 1011.1
20260508195351 69 171 1.0 7.0 0.02 0.49 0.47 33 1011.1
20260508194901 69 142 2.0 10.0 0.03 0.49 0.47 33 1011.2
20260508194514 69 331 4.0 10.0 0.03 0.49 0.47 32 1011.1
20260508194413 70 32 3.0 10.0 0.04 0.49 0.47 32 1011.1
20260508193844 69 5 3.0 7.0 0.04 0.49 0.47 33 1011.1
20260508193336 68 139 2.0 7.0 0.04 0.49 0.47 33 1011.2
20260508193016 67 67 2.0 7.0 0.04 0.49 0.47 34 1011.1
20260508192909 68 111 3.0 7.0 0.04 0.49 0.47 33 1011.2
20260508192340 68 71 2.0 7.0 0.03 0.48 0.46 33 1011.4
20260508191852 67 167 1.0 0.0 0.00 0.00 0.46 34 1011.2
20260508191544 67 201 1.0 5.0 0.03 0.48 0.46 34 1011.3
20260508191343 67 57 2.0 5.0 0.03 0.48 0.46 33 1011.4
20260508190837 68 294 0.0 4.0 0.02 0.47 0.45 33 1011.4
20260508190410 68 78 1.0 7.0 0.04 0.47 0.45 32 1011.6
20260508190039 67 65 1.0 9.0 0.04 0.47 0.45 32 1011.5
20260508185839 67 67 2.0 9.0 0.05 0.47 0.45 33 1011.7
20260508185412 68 290 2.0 8.0 0.05 0.47 0.45 31 1011.7
20260508184844 70 36 4.0 8.0 0.04 0.46 0.44 30 1011.8
20260508184538 70 40 2.0 8.0 0.05 0.46 0.44 31 1011.9
20260508184337 70 49 1.0 9.0 0.04 0.45 0.43 32 1011.8
20260508183908 70 269 2.0 11.0 0.04 0.45 0.43 31 1011.8
20260508183339 69 133 1.0 7.0 0.04 0.45 0.43 32 1011.9
20260508183052 69 355 2.0 7.0 0.05 0.45 0.43 32 1011.8
20260508182851 69 82 3.0 7.0 0.06 0.45 0.43 31 1011.9
20260508182343 69 24 3.0 8.0 0.08 0.45 0.43 31 1011.9
20260508181836 70 300 4.0 10.0 0.08 0.45 0.43 30 1011.9
20260508181537 70 310 4.0 10.0 0.08 0.45 0.43 29 1012.0
20260508180854 71 160 3.0 10.0 0.09 0.43 0.41 30 1012.2
20260508180346 71 113 2.0 9.0 0.09 0.43 0.41 30 1012.0
20260508180038 70 117 4.0 9.0 0.09 0.43 0.41 30 1012.3
20260508175837 70 321 3.0 9.0 0.08 0.42 0.40 31 1012.2
20260508174848 67 189 4.0 10.0 0.09 0.42 0.40 32 1012.5
20260508174544 67 294 3.0 10.0 0.08 0.41 0.39 32 1012.5
20260508174340 67 85 3.0 10.0 0.08 0.41 0.39 33 1012.5
20260508173912 67 300 4.0 10.0 0.08 0.41 0.39 32 1012.6
20260508173403 66 124 4.0 10.0 0.08 0.41 0.39 33 1012.4
20260508173055 65 206 3.0 10.0 0.08 0.40 0.38 34 1012.5
20260508172854 65 161 5.0 10.0 0.08 0.39 0.37 33 1012.5
20260508172345 65 57 3.0 10.0 0.07 0.37 0.35 35 1012.7
20260508171859 65 355 2.0 9.0 0.07 0.37 0.35 34 1012.7
20260508171553 65 163 2.0 10.0 0.07 0.37 0.35 33 1012.7
20260508171350 65 105 3.0 10.0 0.08 0.37 0.35 34 1012.6
20260508170842 65 198 2.0 7.0 0.05 0.34 0.32 34 1012.8
20260508170356 66 271 4.0 8.0 0.05 0.34 0.32 33 1012.9
20260508170046 65 78 2.0 8.0 0.05 0.34 0.32 33 1012.9
20260508165845 67 202 4.0 8.0 0.09 0.34 0.32 32 1013.0
20260508165337 67 202 3.0 8.0 0.08 0.33 0.31 35 1012.9
20260508164848 65 325 2.0 6.0 0.08 0.33 0.31 36 1013.0
20260508164540 65 38 2.0 6.0 0.08 0.33 0.31 38 1013.0
20260508164340 65 5 2.0 9.0 0.08 0.33 0.31 37 1013.1
20260508163853 65 340 3.0 9.0 0.08 0.33 0.31 35 1013.2
20260508163344 67 347 3.0 9.0 0.08 0.33 0.31 33 1013.1
20260508163041 67 174 3.0 7.0 0.07 0.32 0.30 34 1013.2
20260508162837 67 97 4.0 7.0 0.06 0.31 0.29 35 1013.1
20260508162349 65 323 2.0 8.0 0.05 0.30 0.28 35 1013.3
20260508161842 64 323 4.0 13.0 0.07 0.30 0.28 38 1013.4
20260508161604 64 293 4.0 13.0 0.11 0.30 0.28 36 1013.4
20260508161352 64 157 4.0 8.0 0.10 0.29 0.27 36 1013.5
20260508160846 64 355 3.0 8.0 0.10 0.29 0.27 39 1013.6
20260508160359 64 66 3.0 7.0 0.10 0.29 0.27 39 1013.4
20260508160047 63 329 3.0 7.0 0.10 0.28 0.27 39 1013.5
20260508155847 64 340 4.0 9.0 0.07 0.25 0.23 38 1013.5
20260508155359 66 281 3.0 7.0 0.08 0.25 0.23 35 1013.6
20260508154849 65 68 4.0 7.0 0.11 0.25 0.23 39 1013.6
20260508154542 63 30 3.0 8.0 0.16 0.25 0.23 40 1013.6
20260508154341 63 87 2.0 8.0 0.16 0.25 0.23 40 1013.6
20260508153853 64 327 2.0 8.0 0.16 0.25 0.23 40 1013.7
20260508153346 63 327 4.0 7.0 0.17 0.25 0.23 39 1013.8
20260508153046 62 74 2.0 10.0 0.17 0.25 0.23 39 1013.7
20260508152843 63 56 3.0 10.0 0.17 0.25 0.23 40 1013.7
20260508152355 62 77 3.0 12.0 0.18 0.25 0.23 41 1013.8
20260508151848 63 219 5.0 12.0 0.16 0.23 0.21 39 1013.6
20260508151542 62 57 2.0 9.0 0.12 0.19 0.17 40 1013.6
20260508151341 62 51 3.0 10.0 0.12 0.19 0.17 39 1013.7
20260508150854 62 73 4.0 10.0 0.12 0.19 0.17 39 1013.9
20260508150408 62 46 5.0 13.0 0.12 0.19 0.17 39 1013.9
20260508150036 62 87 4.0 13.0 0.12 0.19 0.17 39 1013.8
20260508145836 62 37 2.0 8.0 0.11 0.18 0.16 41 1013.8
20260508145349 62 180 4.0 12.0 0.10 0.17 0.15 39 1014.0
20260508144902 62 218 4.0 12.0 0.07 0.14 0.12 40 1013.9
20260508144516 62 125 4.0 12.0 0.02 0.09 0.07 41 1014.2
20260508144415 62 59 3.0 10.0 0.02 0.09 0.07 40 1014.0
20260508143003 61 63 2.0 7.0 0.06 0.08 0.06 41 1014.3
20260508141602 60 15 3.0 9.0 0.05 0.07 0.05 41 1014.2
20260508140057 59 176 1.0 7.0 0.05 0.07 0.05 42 1014.3
20260508134558 57 148 3.0 11.0 0.05 0.07 0.05 44 1014.5
20260508133102 56 248 3.0 7.0 0.00 0.02 0.00 49 1014.5
20260508131548 54 195 3.0 6.0 0.00 0.02 0.00 53 1014.5
20260508130041 52 63 0.0 2.0 0.00 0.02 0.00 60 1014.7
20260508124536 50 323 2.0 5.0 0.00 0.02 0.00 65 1014.8
20260508123051 46 12 1.0 4.0 0.00 0.02 0.00 73 1015.0
20260508121547 43 117 1.0 4.0 0.00 0.02 0.00 80 1015.1
20260508120034 41 286 1.0 3.0 0.00 0.02 0.00 82 1015.1
20260508114532 39 191 0.0 0.0 0.00 0.02 0.00 88 1015.1
20260508113033 39 191 0.0 0.0 0.00 0.02 0.00 90 1015.0
20260508111530 37 191 0.0 0.0 0.00 0.02 0.00 94 1014.9
20260508110028 36 191 0.0 0.0 0.00 0.02 0.00 94 1014.7